Location: Hall+in+Tirol
(47.2830°N, 11.5170°E)
Time: 09:39:59
(UTC+02:00)

Daily predictions for brighter satellites

Satellite Brightness Start Highest point End
(mag) Time Altitude Azimuth Time Altitude Azimuth Time Altitude Azimuth
Cosmos 1943 Rocket 3.5 21:30:51 10° N 21:35:33 27° NE 21:40:15 10° ESE
ALOS 3.9 21:31:44 10° SSW 21:35:58 34° W 21:40:13 10° NNW
CZ-2C R/B 2.7 21:37:37 10° SSW 21:39:34 23° W 21:41:31 10° NW
GRACE-1 3.9 21:36:48 10° N 21:39:41 75° E 21:42:32 10° S
GRACE-2 3.9 21:37:15 10° N 21:40:08 75° E 21:42:59 10° S
YAOGAN 6 3.6 21:37:11 10° SE 21:40:35 34° ENE 21:44:01 10° N
Cosmos 1943 3.8 21:36:23 10° S 21:41:28 35° ESE 21:46:36 10° NE
Cosmos 1515 4.2 21:40:30 10° SSE 21:44:09 42° E 21:47:49 10° NNE
ERS-1 Rocket 3.8 21:40:41 10° S 21:45:33 51° W 21:50:28 10° NNW
COSMOS 2455 2.9 21:41:08 10° SSW 21:47:02 61° ESE 21:52:59 10° NE
Tsikada Rocket 4.1 21:43:40 10° S 21:50:05 85° E 21:56:30 10° N
Aureole 2 Rocket 4.3 21:46:56 10° SW 21:50:25 36° WNW 21:53:38 10° N
SPOT 5 2.6 21:47:10 10° SSE 21:51:32 89° E 21:55:53 10° NNW
Cosmos 1939 Rocket 3.7 21:52:54 10° S 21:56:58 53° W 22:01:02 10° NNW
ISS -3.1 21:54:05 10° SW 21:57:14 48° SSE 22:00:25 10° ENE
Envisat 3.2 21:52:12 10° S 21:57:16 74° WSW 22:02:22 10° NNW
Cosmos 1953 4.3 21:55:30 10° NNE 21:58:04 16° ENE 22:00:37 10° ESE
Lacrosse 5 rocket 3.5 21:55:55 10° W 21:59:23 28° NNW 22:03:02 10° NE
Terra 3.3 21:56:15 10° ESE 21:59:57 23° ENE 22:03:41 10° N
Cosmos 407 Rocket 4.2 21:55:55 10° SSE 22:00:36 34° ESE 22:05:16 10° NE
Lacrosse 5 3.9 21:57:18 10° WNW 22:01:39 28° N 22:06:00 10° NE
PSLV R/B 4.4 22:05:13 10° WSW 22:08:20 29° S 22:10:52 13° ESE
ARGOS 3.3 22:09:35 11° SSE 22:14:41 66° ENE 22:20:05 10° N
Cosmos 1825 Rocket 3.6 22:11:13 10° S 22:15:37 71° E 22:20:03 10° NNE
Cosmos 1346 Rocket 3.0 22:12:24 10° S 22:16:10 49° E 22:20:00 10° NNE
UNK 4.2 22:15:07 10° NNE 22:20:34 86° ESE 22:26:17 10° SSW
Cosmos 1634 Rocket 4.0 22:14:52 10° N 22:21:05 89° WSW 22:27:17 10° S
Cosmos 2369 Rocket 2.4 22:15:59 10° NNW 22:21:38 70° WSW 22:26:43 13° SSE
Cosmos 1842 4.3 22:23:28 17° SE 22:25:44 29° E 22:29:11 10° NNE
USA 81 4.3 22:24:13 10° N 22:29:30 74° W 22:34:46 10° S
SL-27 R/B 3.7 22:31:18 19° ESE 22:32:07 21° E 22:34:45 10° NE
NOAA 11 4.2 22:33:13 14° SSE 22:37:52 88° WSW 22:43:19 10° NNW
IGS 5A 4.1 22:39:35 20° SE 22:42:07 43° ENE 22:46:05 10° N
Cosmos 2279 Rocket 4.0 22:36:04 10° N 22:42:22 80° E 22:47:26 16° SSE
SeaSat 1 3.6 22:39:18 11° S 22:43:41 36° WSW 22:48:15 10° NW
SL-8 R/B 3.7 22:39:14 10° WNW 22:44:05 90° NNW 22:48:28 13° ESE
Cosmos 1758 3.9 22:41:23 10° N 22:45:23 46° ENE 22:47:39 23° SE
Cosmos 1766 3.3 22:42:09 10° N 22:46:12 85° W 22:48:55 20° S
Cosmos 2084 3.4 22:42:31 10° NW 22:46:37 75° NE 22:49:18 22° SE
Geosat 4.4 22:41:59 10° NE 22:46:47 43° ESE 22:50:35 16° S
ATLAS 3B R/B 2.9 22:39:52 10° SSW 22:47:33 78° SE 22:55:03 10° NE
Lacrosse 4 Rocket 1.3 22:47:05 10° SSW 22:51:08 89° ESE 22:55:17 10° NNE
CZ-4B R/B 4.1 22:48:26 10° N 22:53:26 60° WNW 22:58:32 10° SSW
Atlas Centaur 2 4.1 22:50:20 10° SW 22:56:01 22° S 22:58:41 19° SSE
Cosmos 1190 Rocket 4.4 22:50:59 10° SSW 22:56:17 69° WNW 23:01:37 10° NNE
SL-08 RB Rocket 4.0 22:52:52 17° S 22:56:18 62° W 23:00:48 10° NNW
H-2A R/B 2.0 22:53:28 21° SSE 22:56:47 76° ENE 23:01:54 10° NNW
Cosmos 1570 Rocket 4.3 22:51:40 10° NNW 22:57:01 62° ENE 23:00:22 23° SE
SL-23 DEB 4.4 22:52:02 10° SW 22:57:26 43° SSE 23:00:53 10° ENE
COSMOS 2406 3.7 22:57:46 20° SSE 23:01:08 40° ESE 23:06:28 10° NE
USA 234 3.6 22:57:10 20° SSE 23:01:44 54° SW 23:08:09 10° WNW
Cosmos 1953 Rocket 4.3 22:58:36 10° SSW 23:02:54 51° WNW 23:07:17 10° N
BREEZE-M DEB (TANK) 1.4 23:02:21 10° WSW 23:04:50 89° NNW 23:06:03 21° ENE
Cosmos 2221 4.4 23:01:51 10° NNE 23:04:59 19° ENE 23:06:53 15° E
Cosmos-2242 3.1 23:03:43 10° NNW 23:08:09 80° W 23:10:42 25° S
Cosmos 1140 Rocket 3.7 23:08:05 22° S 23:11:15 53° ESE 23:16:21 10° NNE
Cosmos 676 Rocket 4.1 23:07:56 10° SSW 23:13:16 80° WNW 23:18:39 10° NNE
Cosmos 1470 3.7 23:09:57 10° N 23:13:31 34° ENE 23:14:51 26° ESE
Cosmos 1340 4.0 23:15:01 23° ESE 23:15:34 24° E 23:18:42 10° NE
Cosmos 1805 3.2 23:12:19 10° N 23:16:18 88° E 23:18:01 33° S
Cosmos 1943 Rocket 2.4 23:14:14 10° NNW 23:19:42 60° WSW 23:22:56 25° S
Landsat 7 4.5 23:18:33 20° SSW 23:21:36 49° W 23:26:14 10° NNW
Cosmos 1943 4.4 23:20:03 10° SW 23:25:26 42° NW 23:30:52 10° NNE
DMSP B5D2-2 4.0 23:20:15 10° NNE 23:25:34 81° ESE 23:28:59 23° S
Cosmos 1544 3.3 23:22:55 10° N 23:26:41 62° E 23:27:49 40° SE
USA 238 DEB 3.7 23:22:17 10° SSW 23:29:17 65° ESE 23:36:16 10° NE
USA 238 3.7 23:22:24 10° SSW 23:29:23 65° ESE 23:36:22 10° NE
Spot 4 3.9 23:27:34 28° S 23:30:04 70° WSW 23:34:52 10° NNW
Cosmos 1656 Rocket 3.7 23:25:29 10° NNW 23:31:14 87° ENE 23:34:11 30° SSE
ISS -2.2 23:30:33 10° W 23:33:44 46° NNW 23:36:54 10° ENE
Cosmos 1953 3.0 23:30:59 10° NNW 23:34:49 46° W 23:36:38 26° SSW
Okean 3 Rocket 4.1 23:34:54 34° SE 23:36:11 43° E 23:40:24 10° NNE
Cosmos 614 Rocket 4.1 23:34:08 31° S 23:36:25 55° ESE 23:41:32 10° NNE
Terra 2.4 23:34:49 24° SSW 23:37:24 49° W 23:42:03 10° NNW
CARTOSAT-1 4.5 23:36:45 23° SSW 23:38:58 41° W 23:43:04 10° NNW
Lacrosse 5 rocket 3.9 23:36:29 10° NW 23:39:42 22° N 23:43:03 10° NE
Lacrosse 5 3.4 23:41:10 10° NW 23:45:46 34° NNE 23:50:22 10° E
Cosmos 1818 4.1 23:45:59 10° NNW 23:51:23 54° NE 23:54:38 23° ESE
Cosmos 1092 Rocket 4.0 23:48:38 27° S 23:52:21 87° E 23:58:40 10° N
Cosmos 1707 3.0 23:51:54 45° SE 23:52:35 51° E 23:56:25 10° NNE
